DAL658 PHNL-KLAX

Flight info

Callsign DAL658
Flight time 4h 34m
Altitude 37000
Route MKK5 KOLEA CLUTS R465 CIVIT R585 AUDIA EXERT
Aircraft MD11/H-SDE1E2E3FGHIJ2J3J4J5M1RWXY/LB1D1

Departure

Time 2026-04-21 15:46
Airport Daniel K. Inouye International Airport (PHNL)

Arrival

Time 2026-04-21 20:21
Airport Los Angeles International Airport (KLAX)
Time Latitude Longitude Altitude Speed Heading
2026-04-21 15:21 21.32931 -157.91757 31 ft 0 kts 72°
2026-04-21 15:34 21.32924 -157.91780 31 ft 4 kts 72°
2026-04-21 15:34 21.32917 -157.91802 31 ft 4 kts 75°
2026-04-21 15:35 21.32914 -157.91829 31 ft 4 kts 97°
2026-04-21 15:35 21.32920 -157.91856 31 ft 4 kts 109°
2026-04-21 15:35 21.32926 -157.91878 31 ft 0 kts 92°
2026-04-21 15:38 21.32925 -157.91876 31 ft 2 kts 98°
2026-04-21 15:38 21.32862 -157.91846 31 ft 20 kts 180°
2026-04-21 15:38 21.32779 -157.91949 31 ft 18 kts 261°
2026-04-21 15:38 21.32773 -157.92076 31 ft 17 kts 268°
2026-04-21 15:39 21.32769 -157.92199 32 ft 17 kts 268°
2026-04-21 15:39 21.32769 -157.92327 32 ft 21 kts 270°
2026-04-21 15:39 21.32771 -157.92509 32 ft 24 kts 270°
2026-04-21 15:39 21.32771 -157.92684 32 ft 23 kts 267°
2026-04-21 15:40 21.32742 -157.92845 32 ft 21 kts 270°
2026-04-21 15:40 21.32743 -157.92995 32 ft 20 kts 270°
2026-04-21 15:40 21.32743 -157.93155 32 ft 23 kts 270°
2026-04-21 15:40 21.32743 -157.93324 32 ft 23 kts 270°
2026-04-21 15:41 21.32744 -157.93496 32 ft 23 kts 270°
2026-04-21 15:41 21.32742 -157.93662 32 ft 22 kts 269°
2026-04-21 15:41 21.32741 -157.93821 32 ft 20 kts 269°
2026-04-21 15:41 21.32739 -157.93981 32 ft 24 kts 267°
2026-04-21 15:42 21.32630 -157.94130 32 ft 29 kts 210°
2026-04-21 15:42 21.32460 -157.94228 32 ft 27 kts 208°
2026-04-21 15:42 21.32301 -157.94322 32 ft 25 kts 209°
2026-04-21 15:42 21.32159 -157.94407 32 ft 22 kts 209°
2026-04-21 15:43 21.32035 -157.94482 32 ft 20 kts 209°
2026-04-21 15:43 21.31905 -157.94560 32 ft 24 kts 209°
2026-04-21 15:43 21.31744 -157.94648 31 ft 26 kts 197°
2026-04-21 15:43 21.31575 -157.94649 32 ft 23 kts 174°
2026-04-21 15:44 21.31422 -157.94631 32 ft 21 kts 174°
2026-04-21 15:44 21.31288 -157.94614 32 ft 19 kts 173°
2026-04-21 15:44 21.31153 -157.94596 32 ft 20 kts 173°
2026-04-21 15:44 21.31022 -157.94579 32 ft 18 kts 173°
2026-04-21 15:45 21.30899 -157.94570 32 ft 18 kts 178°
2026-04-21 15:45 21.30751 -157.94566 31 ft 22 kts 178°
2026-04-21 15:45 21.30684 -157.94519 33 ft 4 kts 109°
2026-04-21 15:45 21.30685 -157.94475 34 ft 24 kts 90°
2026-04-21 15:46 21.30683 -157.93988 37 ft 107 kts 90°
2026-04-21 15:46 21.30681 -157.92914 32 ft 176 kts 89°
2026-04-21 15:46 21.30678 -157.91598 706 ft 175 kts 93°
2026-04-21 15:46 21.30392 -157.90345 1642 ft 176 kts 114°
2026-04-21 15:47 21.29698 -157.89192 2372 ft 189 kts 132°
2026-04-21 15:47 21.28672 -157.88256 3162 ft 198 kts 148°
2026-04-21 15:47 21.27357 -157.87702 3738 ft 205 kts 163°
2026-04-21 15:47 21.25961 -157.87309 4097 ft 224 kts 164°
2026-04-21 15:48 21.24336 -157.86826 4256 ft 256 kts 158°
2026-04-21 15:48 21.22844 -157.85741 4701 ft 265 kts 129°
2026-04-21 15:48 21.21996 -157.83995 5392 ft 268 kts 102°
2026-04-21 15:48 21.21805 -157.81991 6037 ft 274 kts 91°
2026-04-21 15:49 21.21803 -157.79938 6750 ft 277 kts 89°
2026-04-21 15:49 21.21863 -157.77888 7420 ft 281 kts 81°
2026-04-21 15:49 21.22430 -157.75878 8097 ft 283 kts 67°
2026-04-21 15:49 21.23246 -157.73938 8771 ft 287 kts 64°
2026-04-21 15:50 21.24230 -157.72051 9413 ft 291 kts 55°
2026-04-21 15:50 21.25430 -157.70281 10070 ft 295 kts 52°
2026-04-21 15:50 21.26649 -157.68517 10662 ft 300 kts 53°
2026-04-21 15:50 21.27909 -157.66627 10885 ft 323 kts 53°
2026-04-21 15:51 21.29226 -157.64568 11024 ft 346 kts 54°
2026-04-21 15:51 21.30599 -157.62348 11159 ft 368 kts 55°
2026-04-21 15:51 21.32016 -157.60004 11612 ft 378 kts 56°
2026-04-21 15:51 21.33432 -157.57623 12274 ft 383 kts 56°
2026-04-21 15:52 21.34870 -157.55190 12925 ft 388 kts 56°
2026-04-21 15:52 21.36321 -157.52723 13584 ft 392 kts 56°
2026-04-21 15:52 21.37288 -157.51073 14001 ft 395 kts 55°
2026-04-21 15:52 21.39266 -157.47702 14811 ft 401 kts 55°
2026-04-21 15:53 21.40759 -157.45156 15422 ft 405 kts 55°
2026-04-21 15:53 21.42251 -157.42609 16001 ft 409 kts 54°
2026-04-21 15:53 21.43778 -157.40000 16562 ft 413 kts 54°
2026-04-21 15:53 21.45318 -157.37370 17120 ft 417 kts 54°
2026-04-21 15:54 21.46875 -157.34712 17655 ft 421 kts 54°
2026-04-21 15:54 21.48420 -157.32070 18209 ft 425 kts 53°
2026-04-21 15:54 21.49999 -157.29369 18744 ft 428 kts 53°
2026-04-21 15:54 21.51590 -157.26642 19311 ft 430 kts 53°
2026-04-21 15:55 21.53185 -157.23909 19892 ft 432 kts 54°
2026-04-21 15:55 21.54786 -157.21164 20409 ft 434 kts 54°
2026-04-21 15:55 21.56377 -157.18437 20934 ft 436 kts 54°
2026-04-21 15:55 21.57996 -157.15659 21474 ft 438 kts 53°
2026-04-21 15:56 21.59622 -157.12868 21988 ft 440 kts 53°
2026-04-21 15:56 21.61254 -157.10066 22464 ft 442 kts 53°
2026-04-21 15:56 21.62871 -157.07289 22955 ft 444 kts 53°
2026-04-21 15:56 21.64517 -157.04461 23432 ft 446 kts 53°
2026-04-21 15:57 21.66164 -157.01628 23870 ft 448 kts 54°
2026-04-21 15:57 21.67816 -156.98771 24326 ft 450 kts 54°
2026-04-21 15:57 21.68915 -156.96870 24621 ft 452 kts 53°
2026-04-21 15:57 21.71130 -156.93040 25179 ft 455 kts 53°
2026-04-21 15:58 21.72243 -156.91117 25447 ft 456 kts 53°
2026-04-21 15:58 21.73931 -156.88204 25858 ft 459 kts 53°
2026-04-21 15:58 21.75633 -156.85268 26232 ft 461 kts 53°
2026-04-21 15:58 21.77320 -156.82358 26633 ft 463 kts 53°
2026-04-21 15:59 21.79031 -156.79405 27020 ft 465 kts 52°
2026-04-21 15:59 21.80726 -156.76476 27370 ft 467 kts 52°
2026-04-21 15:59 21.82455 -156.73485 27722 ft 469 kts 52°
2026-04-21 15:59 21.84191 -156.70485 28103 ft 470 kts 52°
2026-04-21 16:00 21.85896 -156.67529 28440 ft 472 kts 52°
2026-04-21 16:00 21.87640 -156.64507 28784 ft 473 kts 52°
2026-04-21 16:00 21.89387 -156.61483 29127 ft 475 kts 51°
2026-04-21 16:00 21.91118 -156.58486 29460 ft 476 kts 51°
2026-04-21 16:01 21.92872 -156.55444 29778 ft 478 kts 51°
2026-04-21 16:01 21.94637 -156.52382 30149 ft 479 kts 51°
2026-04-21 16:01 21.96378 -156.49358 30477 ft 480 kts 51°
2026-04-21 16:01 21.98144 -156.46286 30772 ft 482 kts 51°
2026-04-21 16:02 21.99915 -156.43203 31145 ft 481 kts 51°
2026-04-21 16:02 22.01677 -156.40135 31539 ft 479 kts 51°
2026-04-21 16:02 22.03413 -156.37111 31951 ft 477 kts 51°
2026-04-21 16:02 22.05170 -156.34048 32317 ft 475 kts 51°
2026-04-21 16:03 22.06898 -156.31038 32652 ft 474 kts 51°
2026-04-21 16:03 22.08636 -156.28007 33007 ft 472 kts 51°
2026-04-21 16:03 22.10346 -156.25019 33315 ft 471 kts 51°
2026-04-21 16:03 22.12070 -156.21996 33614 ft 470 kts 51°
2026-04-21 16:04 22.13763 -156.19026 33924 ft 468 kts 51°
2026-04-21 16:04 22.15471 -156.16032 34221 ft 467 kts 50°
2026-04-21 16:04 22.17177 -156.13045 34476 ft 466 kts 50°
2026-04-21 16:04 22.18880 -156.10063 34756 ft 465 kts 50°
2026-04-21 16:05 22.20578 -156.07091 35002 ft 464 kts 50°
2026-04-21 16:05 22.22248 -156.04167 35248 ft 462 kts 50°
2026-04-21 16:05 22.23937 -156.01209 35475 ft 461 kts 50°
2026-04-21 16:05 22.25619 -155.98260 35692 ft 461 kts 50°
2026-04-21 16:06 22.27306 -155.95302 35913 ft 459 kts 50°
2026-04-21 16:06 22.28975 -155.92371 36108 ft 459 kts 50°
2026-04-21 16:06 22.30650 -155.89428 36278 ft 459 kts 50°
2026-04-21 16:06 22.32306 -155.86521 36395 ft 459 kts 50°
2026-04-21 16:07 22.33985 -155.83572 36524 ft 460 kts 50°
2026-04-21 16:07 22.35667 -155.80614 36653 ft 459 kts 50°
2026-04-21 16:07 22.37317 -155.77710 36778 ft 458 kts 50°
2026-04-21 16:07 22.38984 -155.74772 36903 ft 456 kts 50°
2026-04-21 16:08 22.42291 -155.68939 37121 ft 454 kts 50°
2026-04-21 16:08 22.43930 -155.66053 37132 ft 455 kts 50°
2026-04-21 16:09 22.47252 -155.60193 37138 ft 456 kts 50°
2026-04-21 16:09 22.50552 -155.54361 37136 ft 458 kts 50°
2026-04-21 16:10 22.53885 -155.48455 37074 ft 459 kts 51°
2026-04-21 16:10 22.57176 -155.42590 37056 ft 456 kts 51°
2026-04-21 16:11 22.60468 -155.36750 37052 ft 456 kts 51°
2026-04-21 16:11 22.63777 -155.30871 37052 ft 457 kts 51°
2026-04-21 16:12 22.67094 -155.24973 37054 ft 457 kts 51°
2026-04-21 16:12 22.70383 -155.19119 37056 ft 457 kts 51°
2026-04-21 16:13 22.73693 -155.13220 37055 ft 457 kts 51°
2026-04-21 16:13 22.76981 -155.07358 37051 ft 458 kts 51°
2026-04-21 16:14 22.80291 -155.01447 37050 ft 458 kts 51°
2026-04-21 16:14 22.83604 -154.95525 37047 ft 459 kts 51°
2026-04-21 16:15 22.86893 -154.89639 37042 ft 458 kts 51°
2026-04-21 16:15 22.90192 -154.83726 37044 ft 459 kts 51°
2026-04-21 16:16 22.93500 -154.77793 37047 ft 459 kts 52°
2026-04-21 16:16 22.96789 -154.71884 37045 ft 459 kts 52°
2026-04-21 16:17 23.00096 -154.65937 37044 ft 458 kts 51°
2026-04-21 16:17 23.03529 -154.60163 37045 ft 456 kts 50°
2026-04-21 16:18 23.07049 -154.54424 37044 ft 456 kts 49°
2026-04-21 16:18 23.10546 -154.48718 37046 ft 455 kts 50°
2026-04-21 16:19 23.14059 -154.42957 37044 ft 455 kts 50°
2026-04-21 16:19 23.17528 -154.37251 37047 ft 455 kts 50°
2026-04-21 16:20 23.21016 -154.31507 37048 ft 455 kts 50°
2026-04-21 16:20 23.24481 -154.25794 37049 ft 453 kts 50°
2026-04-21 16:21 23.27958 -154.20058 37041 ft 453 kts 50°
2026-04-21 16:21 23.31427 -154.14333 37044 ft 452 kts 50°
2026-04-21 16:22 23.34890 -154.08607 37048 ft 452 kts 50°
2026-04-21 16:22 23.38320 -154.02930 37045 ft 452 kts 50°
2026-04-21 16:23 23.41772 -153.97212 37040 ft 451 kts 51°
2026-04-21 16:23 23.45215 -153.91503 37046 ft 453 kts 51°
2026-04-21 16:24 23.48680 -153.85724 37048 ft 455 kts 51°
2026-04-21 16:24 23.52125 -153.79975 37037 ft 455 kts 51°
2026-04-21 16:25 23.55586 -153.74206 37033 ft 454 kts 51°
2026-04-21 16:25 23.59033 -153.68463 37038 ft 453 kts 51°
2026-04-21 16:26 23.62494 -153.62690 37036 ft 453 kts 51°
2026-04-21 16:26 23.65924 -153.56961 37035 ft 453 kts 51°
2026-04-21 16:27 23.69383 -153.51179 37040 ft 454 kts 51°
2026-04-21 16:27 23.72824 -153.45417 37033 ft 455 kts 51°
2026-04-21 16:28 23.76288 -153.39609 37033 ft 456 kts 51°
2026-04-21 16:28 23.79752 -153.33785 37033 ft 457 kts 52°
2026-04-21 16:29 23.83200 -153.27982 37034 ft 458 kts 52°
2026-04-21 16:29 23.86692 -153.22116 37034 ft 460 kts 52°
2026-04-21 16:30 23.90192 -153.16231 37039 ft 462 kts 52°
2026-04-21 16:30 23.93674 -153.10364 37039 ft 463 kts 52°
2026-04-21 16:31 23.97183 -153.04450 37033 ft 464 kts 53°
2026-04-21 16:31 24.00704 -152.98509 37033 ft 466 kts 53°
2026-04-21 16:32 24.04220 -152.92563 37032 ft 463 kts 53°
2026-04-21 16:32 24.07692 -152.86682 37043 ft 462 kts 53°
2026-04-21 16:33 24.11194 -152.80752 37034 ft 463 kts 53°
2026-04-21 16:33 24.14682 -152.74844 37039 ft 465 kts 54°
2026-04-21 16:34 24.18202 -152.68871 37036 ft 467 kts 54°
2026-04-21 16:34 24.21720 -152.62894 37033 ft 468 kts 54°
2026-04-21 16:35 24.25225 -152.56902 37033 ft 468 kts 54°
2026-04-21 16:35 24.28741 -152.50883 37034 ft 469 kts 54°
2026-04-21 16:36 24.32276 -152.44846 37033 ft 469 kts 54°
2026-04-21 16:36 24.35794 -152.38833 37035 ft 471 kts 54°
2026-04-21 16:37 24.39328 -152.32788 37033 ft 471 kts 55°
2026-04-21 16:37 24.42867 -152.26726 37034 ft 471 kts 55°
2026-04-21 16:38 24.46390 -152.20686 37033 ft 471 kts 55°
2026-04-21 16:38 24.49924 -152.14619 37034 ft 472 kts 55°
2026-04-21 16:39 24.53469 -152.08524 37057 ft 472 kts 55°
2026-04-21 16:39 24.56987 -152.02470 37052 ft 471 kts 55°
2026-04-21 16:40 24.60523 -151.96381 37053 ft 472 kts 56°
2026-04-21 16:40 24.64037 -151.90312 37059 ft 475 kts 56°
2026-04-21 16:41 24.66991 -151.85210 37054 ft 476 kts 56°
2026-04-21 16:41 24.71145 -151.77991 37056 ft 477 kts 56°
2026-04-21 16:42 24.74663 -151.71872 37054 ft 476 kts 56°
2026-04-21 16:42 24.78208 -151.65717 37055 ft 476 kts 56°
2026-04-21 16:43 24.81755 -151.59560 37056 ft 476 kts 56°
2026-04-21 16:43 24.85306 -151.53388 37058 ft 476 kts 56°
2026-04-21 16:44 24.88852 -151.47216 37046 ft 477 kts 56°
2026-04-21 16:44 24.92376 -151.41073 37046 ft 477 kts 56°
2026-04-21 16:45 24.95924 -151.34877 37045 ft 477 kts 56°
2026-04-21 16:45 24.99452 -151.28710 37049 ft 477 kts 56°
2026-04-21 16:46 25.02995 -151.22510 37045 ft 477 kts 56°
2026-04-21 16:46 25.06535 -151.16306 37042 ft 477 kts 56°
2026-04-21 16:47 25.10074 -151.10095 37047 ft 478 kts 56°
2026-04-21 16:47 25.13591 -151.03905 37043 ft 478 kts 56°
2026-04-21 16:48 25.17118 -150.97665 37045 ft 478 kts 56°
2026-04-21 16:48 25.20636 -150.91451 37041 ft 478 kts 56°
2026-04-21 16:49 25.24174 -150.85210 37045 ft 479 kts 56°
2026-04-21 16:49 25.27690 -150.79004 37045 ft 479 kts 56°
2026-04-21 16:50 25.31229 -150.72747 37048 ft 479 kts 56°
2026-04-21 16:50 25.34169 -150.67540 37044 ft 479 kts 56°
2026-04-21 16:51 25.37692 -150.61293 37045 ft 479 kts 56°
2026-04-21 16:51 25.41216 -150.55036 37047 ft 479 kts 56°
2026-04-21 16:52 25.44708 -150.48826 37042 ft 478 kts 56°
2026-04-21 16:52 25.48226 -150.42560 37044 ft 478 kts 56°
2026-04-21 16:53 25.51743 -150.36289 37048 ft 478 kts 56°
2026-04-21 16:53 25.55228 -150.30065 37043 ft 477 kts 56°
2026-04-21 16:54 25.58730 -150.23785 37047 ft 477 kts 57°
2026-04-21 16:54 25.62199 -150.17554 37043 ft 477 kts 57°
2026-04-21 16:55 25.65692 -150.11283 37046 ft 477 kts 56°
2026-04-21 16:55 25.69161 -150.05061 37045 ft 477 kts 57°
2026-04-21 16:56 25.72647 -149.98797 37046 ft 476 kts 57°
2026-04-21 16:56 25.76133 -149.92523 37047 ft 477 kts 57°
2026-04-21 16:57 25.79603 -149.86275 37047 ft 477 kts 57°
2026-04-21 16:57 25.83066 -149.80023 37044 ft 477 kts 57°
2026-04-21 16:58 25.86546 -149.73734 37049 ft 477 kts 57°
2026-04-21 16:58 25.90032 -149.67427 37047 ft 478 kts 57°
2026-04-21 16:59 25.93498 -149.61144 37046 ft 478 kts 57°
2026-04-21 16:59 25.96957 -149.54867 37042 ft 478 kts 57°
2026-04-21 17:00 26.00437 -149.48541 37048 ft 479 kts 57°
2026-04-21 17:00 26.03321 -149.43264 37048 ft 479 kts 57°
2026-04-21 17:01 26.07355 -149.35895 37047 ft 480 kts 57°
2026-04-21 17:01 26.10834 -149.29543 37046 ft 480 kts 57°
2026-04-21 17:02 26.14313 -149.23186 37045 ft 480 kts 57°
2026-04-21 17:02 26.17768 -149.16864 37044 ft 481 kts 57°
2026-04-21 17:03 26.21250 -149.10484 37042 ft 482 kts 58°
2026-04-21 17:03 26.24739 -149.04085 37043 ft 483 kts 58°
2026-04-21 17:04 26.28204 -148.97718 37042 ft 483 kts 58°
2026-04-21 17:04 26.31694 -148.91295 37047 ft 484 kts 58°
2026-04-21 17:05 26.35164 -148.84902 37048 ft 484 kts 58°
2026-04-21 17:05 26.38659 -148.78449 37042 ft 485 kts 58°
2026-04-21 17:06 26.42132 -148.72034 37049 ft 485 kts 58°
2026-04-21 17:06 26.45608 -148.65576 37046 ft 485 kts 58°
2026-04-21 17:07 26.49088 -148.59098 37046 ft 486 kts 58°
2026-04-21 17:07 26.52555 -148.52658 37048 ft 486 kts 58°
2026-04-21 17:08 26.56043 -148.46175 37044 ft 486 kts 58°
2026-04-21 17:08 26.59525 -148.39697 37045 ft 486 kts 58°
2026-04-21 17:09 26.64722 -148.30004 37044 ft 486 kts 58°
2026-04-21 17:09 26.68202 -148.23501 37042 ft 487 kts 58°
2026-04-21 17:10 26.71687 -148.16984 37044 ft 487 kts 58°
2026-04-21 17:10 26.75161 -148.10471 37045 ft 487 kts 59°
2026-04-21 17:11 26.78615 -148.03989 37046 ft 487 kts 58°
2026-04-21 17:11 26.82093 -147.97457 37044 ft 487 kts 59°
2026-04-21 17:12 26.85547 -147.90957 37046 ft 489 kts 59°
2026-04-21 17:12 26.89022 -147.84373 37044 ft 492 kts 59°
2026-04-21 17:13 26.92512 -147.77760 37049 ft 492 kts 59°
2026-04-21 17:13 26.96002 -147.71154 37048 ft 491 kts 59°
2026-04-21 17:14 26.99473 -147.64584 37048 ft 492 kts 59°
2026-04-21 17:14 27.02970 -147.57959 37047 ft 492 kts 59°
2026-04-21 17:15 27.06437 -147.51376 37043 ft 493 kts 59°
2026-04-21 17:15 27.09928 -147.44740 37043 ft 494 kts 59°
2026-04-21 17:16 27.13405 -147.38115 37046 ft 494 kts 59°
2026-04-21 17:16 27.16901 -147.31446 37042 ft 493 kts 59°
2026-04-21 17:17 27.20362 -147.24832 37045 ft 494 kts 59°
2026-04-21 17:17 27.23851 -147.18157 37044 ft 495 kts 59°
2026-04-21 17:18 27.27339 -147.11470 37047 ft 495 kts 59°
2026-04-21 17:18 27.30783 -147.04825 37045 ft 495 kts 59°
2026-04-21 17:19 27.34251 -146.98133 37048 ft 495 kts 59°
2026-04-21 17:19 27.37733 -146.91422 37037 ft 495 kts 59°
2026-04-21 17:20 27.41092 -146.84696 37061 ft 496 kts 63°
2026-04-21 17:20 27.44106 -146.77714 37063 ft 496 kts 65°
2026-04-21 17:21 27.47033 -146.70676 37065 ft 496 kts 65°
2026-04-21 17:21 27.49958 -146.63695 37063 ft 495 kts 64°
2026-04-21 17:22 27.52917 -146.56673 37063 ft 495 kts 64°
2026-04-21 17:22 27.55861 -146.49692 37062 ft 495 kts 64°
2026-04-21 17:23 27.58816 -146.42678 37063 ft 495 kts 64°
2026-04-21 17:23 27.61764 -146.35664 37065 ft 494 kts 64°
2026-04-21 17:24 27.64685 -146.28698 37065 ft 494 kts 65°
2026-04-21 17:24 27.67626 -146.21673 37062 ft 494 kts 65°
2026-04-21 17:25 27.70558 -146.14658 37066 ft 494 kts 64°
2026-04-21 17:25 27.73470 -146.07675 37073 ft 494 kts 65°
2026-04-21 17:26 27.76378 -146.00680 37073 ft 494 kts 65°
2026-04-21 17:26 27.79283 -145.93641 37073 ft 493 kts 65°
2026-04-21 17:27 27.82184 -145.86630 37073 ft 494 kts 65°
2026-04-21 17:27 27.85103 -145.79580 37073 ft 494 kts 65°
2026-04-21 17:28 27.87996 -145.72586 37072 ft 494 kts 65°
2026-04-21 17:28 27.90908 -145.65536 37072 ft 495 kts 65°
2026-04-21 17:29 27.93821 -145.58467 37073 ft 495 kts 65°
2026-04-21 17:29 27.96706 -145.51448 37070 ft 495 kts 65°
2026-04-21 17:30 27.99607 -145.44381 37064 ft 496 kts 65°
2026-04-21 17:30 28.02522 -145.37270 37064 ft 496 kts 65°
2026-04-21 17:31 28.05425 -145.30172 37063 ft 496 kts 65°
2026-04-21 17:31 28.08302 -145.23129 37063 ft 496 kts 65°
2026-04-21 17:32 28.11199 -145.16015 37063 ft 497 kts 65°
2026-04-21 17:32 28.14086 -145.08866 37062 ft 498 kts 65°
2026-04-21 17:33 28.16967 -145.01744 37064 ft 499 kts 65°
2026-04-21 17:33 28.19870 -144.94575 37063 ft 500 kts 65°
2026-04-21 17:34 28.22774 -144.87402 37063 ft 500 kts 65°
2026-04-21 17:34 28.25666 -144.80251 37063 ft 500 kts 65°
2026-04-21 17:35 28.28557 -144.73080 37065 ft 501 kts 65°
2026-04-21 17:35 28.31464 -144.65864 37064 ft 501 kts 65°
2026-04-21 17:36 28.34363 -144.58645 37063 ft 502 kts 65°
2026-04-21 17:36 28.37242 -144.51465 37063 ft 502 kts 66°
2026-04-21 17:37 28.40144 -144.44215 37065 ft 503 kts 65°
2026-04-21 17:37 28.43016 -144.37024 37066 ft 502 kts 66°
2026-04-21 17:38 28.45901 -144.29774 37063 ft 502 kts 66°
2026-04-21 17:38 28.48771 -144.22508 37063 ft 503 kts 66°
2026-04-21 17:39 28.51630 -144.15284 37063 ft 503 kts 66°
2026-04-21 17:39 28.54509 -144.08021 37066 ft 503 kts 66°
2026-04-21 17:40 28.57389 -144.00746 37063 ft 503 kts 66°
2026-04-21 17:40 28.60243 -143.93517 37063 ft 504 kts 66°
2026-04-21 17:41 28.63123 -143.86214 37064 ft 505 kts 66°
2026-04-21 17:41 28.65982 -143.78944 37063 ft 505 kts 66°
2026-04-21 17:42 28.68375 -143.72853 37063 ft 505 kts 66°
2026-04-21 17:42 28.71248 -143.65526 37063 ft 505 kts 66°
2026-04-21 17:43 28.74118 -143.58197 37063 ft 506 kts 66°
2026-04-21 17:43 28.76961 -143.50914 37063 ft 505 kts 66°
2026-04-21 17:44 28.79812 -143.43586 37064 ft 505 kts 66°
2026-04-21 17:44 28.82650 -143.36235 37064 ft 506 kts 66°
2026-04-21 17:45 28.85478 -143.28920 37063 ft 506 kts 66°
2026-04-21 17:45 28.88330 -143.21561 37065 ft 506 kts 66°
2026-04-21 17:46 28.91159 -143.14246 37063 ft 505 kts 66°
2026-04-21 17:46 28.94003 -143.06879 37065 ft 507 kts 66°
2026-04-21 17:47 28.96846 -142.99500 37063 ft 507 kts 66°
2026-04-21 17:47 28.99673 -142.92150 37063 ft 507 kts 66°
2026-04-21 17:48 29.02496 -142.84796 37063 ft 506 kts 66°
2026-04-21 17:48 29.05326 -142.77408 37064 ft 507 kts 66°
2026-04-21 17:49 29.08150 -142.70022 37063 ft 507 kts 66°
2026-04-21 17:49 29.10970 -142.62626 37063 ft 506 kts 66°
2026-04-21 17:50 29.13768 -142.55264 37063 ft 506 kts 66°
2026-04-21 17:50 29.16558 -142.47858 37063 ft 506 kts 66°
2026-04-21 17:51 29.19340 -142.40495 37063 ft 506 kts 66°
2026-04-21 17:51 29.22141 -142.33092 37062 ft 505 kts 66°
2026-04-21 17:52 29.24916 -142.25750 37063 ft 505 kts 66°
2026-04-21 17:52 29.27704 -142.18359 37062 ft 505 kts 66°
2026-04-21 17:53 29.30482 -142.10969 37063 ft 503 kts 66°
2026-04-21 17:53 29.33230 -142.03647 37063 ft 503 kts 66°
2026-04-21 17:54 29.35991 -141.96279 37062 ft 503 kts 65°
2026-04-21 17:54 29.38758 -141.88884 37063 ft 505 kts 65°
2026-04-21 17:55 29.41524 -141.81475 37063 ft 505 kts 65°
2026-04-21 17:55 29.44283 -141.74063 37062 ft 504 kts 65°
2026-04-21 17:56 29.47010 -141.66695 37063 ft 504 kts 66°
2026-04-21 17:56 29.49743 -141.59261 37062 ft 504 kts 65°
2026-04-21 17:57 29.52484 -141.51839 37052 ft 505 kts 66°
2026-04-21 17:57 29.55215 -141.44447 37052 ft 505 kts 66°
2026-04-21 17:58 29.57968 -141.36985 37052 ft 507 kts 66°
2026-04-21 17:58 29.60703 -141.29550 37054 ft 507 kts 66°
2026-04-21 17:59 29.63446 -141.22073 37054 ft 508 kts 66°
2026-04-21 17:59 29.66180 -141.14610 37049 ft 509 kts 66°
2026-04-21 18:00 29.68930 -141.07086 37039 ft 510 kts 66°
2026-04-21 18:00 29.71680 -140.99549 37033 ft 511 kts 66°
2026-04-21 18:01 29.74418 -140.92029 37038 ft 511 kts 66°
2026-04-21 18:01 29.77164 -140.84468 37033 ft 512 kts 66°
2026-04-21 18:02 29.79902 -140.76877 37034 ft 513 kts 67°
2026-04-21 18:02 29.82617 -140.69313 37033 ft 514 kts 67°
2026-04-21 18:03 29.85364 -140.61684 37039 ft 513 kts 67°
2026-04-21 18:03 29.88103 -140.54079 37033 ft 513 kts 67°
2026-04-21 18:04 29.90820 -140.46526 37034 ft 512 kts 67°
2026-04-21 18:04 29.93546 -140.38925 37033 ft 512 kts 67°
2026-04-21 18:05 29.96247 -140.31380 37034 ft 510 kts 67°
2026-04-21 18:05 29.98954 -140.23801 37033 ft 511 kts 67°
2026-04-21 18:06 30.01655 -140.16220 37040 ft 509 kts 67°
2026-04-21 18:06 30.04339 -140.08657 37039 ft 508 kts 68°
2026-04-21 18:07 30.07007 -140.01144 37040 ft 508 kts 67°
2026-04-21 18:07 30.09683 -139.93579 37033 ft 509 kts 68°
2026-04-21 18:08 30.12341 -139.85988 37040 ft 509 kts 68°
2026-04-21 18:08 30.14988 -139.78442 37032 ft 510 kts 68°
2026-04-21 18:09 30.17663 -139.70825 37037 ft 510 kts 68°
2026-04-21 18:09 30.20333 -139.63227 37033 ft 510 kts 68°
2026-04-21 18:10 30.22935 -139.55659 37041 ft 510 kts 69°
2026-04-21 18:10 30.25401 -139.47945 37037 ft 511 kts 70°
2026-04-21 18:11 30.27837 -139.40209 37033 ft 512 kts 70°
2026-04-21 18:11 30.30269 -139.32509 37034 ft 511 kts 69°
2026-04-21 18:12 30.32719 -139.24764 37031 ft 512 kts 69°
2026-04-21 18:12 30.35159 -139.17046 37026 ft 512 kts 69°
2026-04-21 18:13 30.37603 -139.09285 37026 ft 513 kts 69°
2026-04-21 18:13 30.40043 -139.01509 37026 ft 513 kts 69°
2026-04-21 18:14 30.43692 -138.89858 37026 ft 514 kts 69°
2026-04-21 18:15 30.46130 -138.82050 37026 ft 515 kts 69°
2026-04-21 18:15 30.48563 -138.74238 37026 ft 515 kts 69°
2026-04-21 18:16 30.50972 -138.66463 37026 ft 515 kts 70°
2026-04-21 18:16 30.53381 -138.58618 37026 ft 515 kts 70°
2026-04-21 18:17 30.55782 -138.50825 37030 ft 515 kts 69°
2026-04-21 18:17 30.58193 -138.42998 37026 ft 515 kts 70°
2026-04-21 18:18 30.60610 -138.35150 37026 ft 515 kts 69°
2026-04-21 18:18 30.63010 -138.27351 37025 ft 515 kts 69°
2026-04-21 18:19 30.65420 -138.19473 37026 ft 516 kts 70°
2026-04-21 18:19 30.67809 -138.11649 37029 ft 516 kts 70°
2026-04-21 18:20 30.70204 -138.03787 37026 ft 516 kts 70°
2026-04-21 18:20 30.72603 -137.95895 37029 ft 516 kts 69°
2026-04-21 18:21 30.74999 -137.87990 37027 ft 519 kts 69°
2026-04-21 18:21 30.77379 -137.80111 37026 ft 519 kts 69°
2026-04-21 18:22 30.79760 -137.72172 37030 ft 519 kts 70°
2026-04-21 18:22 30.82133 -137.64212 37026 ft 519 kts 70°
2026-04-21 18:23 30.84495 -137.56320 37026 ft 520 kts 70°
2026-04-21 18:23 30.86880 -137.48346 37026 ft 521 kts 69°
2026-04-21 18:24 30.89254 -137.40407 37026 ft 521 kts 69°
2026-04-21 18:24 30.91632 -137.32423 37026 ft 521 kts 70°
2026-04-21 18:25 30.93994 -137.24474 37026 ft 522 kts 69°
2026-04-21 18:25 30.96370 -137.16457 37026 ft 522 kts 69°
2026-04-21 18:26 30.98744 -137.08424 37026 ft 523 kts 69°
2026-04-21 18:26 31.01094 -137.00454 37026 ft 524 kts 70°
2026-04-21 18:27 31.03464 -136.92394 37026 ft 524 kts 70°
2026-04-21 18:27 31.05806 -136.84397 37026 ft 525 kts 70°
2026-04-21 18:28 31.08151 -136.76304 37026 ft 525 kts 70°
2026-04-21 18:28 31.10482 -136.68262 37026 ft 526 kts 70°
2026-04-21 18:29 31.12836 -136.60163 37026 ft 526 kts 69°
2026-04-21 18:29 31.15176 -136.52106 37026 ft 526 kts 70°
2026-04-21 18:30 31.17527 -136.43980 37026 ft 527 kts 70°
2026-04-21 18:30 31.19864 -136.35883 37026 ft 527 kts 70°
2026-04-21 18:31 31.22193 -136.27792 37028 ft 528 kts 70°
2026-04-21 18:31 31.24533 -136.19648 37026 ft 528 kts 70°
2026-04-21 18:32 31.26857 -136.11529 37031 ft 528 kts 70°
2026-04-21 18:32 31.29188 -136.03364 37030 ft 528 kts 70°
2026-04-21 18:33 31.31501 -135.95240 37026 ft 529 kts 69°
2026-04-21 18:33 31.33812 -135.87032 37026 ft 532 kts 70°
2026-04-21 18:34 31.36112 -135.78843 37031 ft 531 kts 70°
2026-04-21 18:34 31.38432 -135.70608 37030 ft 531 kts 70°
2026-04-21 18:35 31.40359 -135.63771 37026 ft 531 kts 69°
2026-04-21 18:35 31.42664 -135.55577 37026 ft 532 kts 70°
2026-04-21 18:36 31.44963 -135.47368 37026 ft 532 kts 70°
2026-04-21 18:36 31.47270 -135.39109 37026 ft 532 kts 70°
2026-04-21 18:37 31.49558 -135.30899 37031 ft 533 kts 70°
2026-04-21 18:37 31.51863 -135.22605 37038 ft 533 kts 70°
2026-04-21 18:38 31.54146 -135.14372 37033 ft 534 kts 70°
2026-04-21 18:38 31.56444 -135.06056 37033 ft 534 kts 70°
2026-04-21 18:39 31.58716 -134.97777 37032 ft 535 kts 70°
2026-04-21 18:39 31.60986 -134.89426 37026 ft 536 kts 70°
2026-04-21 18:40 31.63253 -134.81112 37026 ft 537 kts 70°
2026-04-21 18:40 31.65528 -134.72784 37031 ft 537 kts 70°
2026-04-21 18:41 31.67816 -134.64392 37026 ft 538 kts 70°
2026-04-21 18:41 31.70090 -134.56028 37033 ft 539 kts 70°
2026-04-21 18:42 31.72359 -134.47646 37033 ft 540 kts 70°
2026-04-21 18:42 31.74622 -134.39254 37040 ft 541 kts 70°
2026-04-21 18:43 31.76898 -134.30801 37039 ft 541 kts 70°
2026-04-21 18:43 31.79153 -134.22408 37033 ft 541 kts 70°
2026-04-21 18:44 31.81423 -134.13934 37043 ft 542 kts 70°
2026-04-21 18:44 31.83663 -134.05514 37033 ft 542 kts 70°
2026-04-21 18:45 31.85890 -133.97061 37036 ft 543 kts 70°
2026-04-21 18:45 31.88130 -133.88555 37033 ft 543 kts 70°
2026-04-21 18:46 31.90377 -133.80050 37033 ft 542 kts 70°
2026-04-21 18:46 31.92599 -133.71621 37034 ft 543 kts 70°
2026-04-21 18:47 31.94834 -133.63117 37033 ft 543 kts 70°
2026-04-21 18:47 31.97055 -133.54653 37041 ft 544 kts 70°
2026-04-21 18:48 31.99286 -133.46119 37037 ft 543 kts 70°
2026-04-21 18:48 32.01498 -133.37614 37033 ft 544 kts 70°
2026-04-21 18:49 32.03723 -133.29048 37034 ft 544 kts 70°
2026-04-21 18:49 32.05556 -133.21980 37033 ft 545 kts 70°
2026-04-21 18:50 32.08125 -133.12011 37036 ft 545 kts 70°
2026-04-21 18:50 32.10310 -133.03417 37036 ft 545 kts 70°
2026-04-21 18:51 32.12482 -132.94890 37038 ft 547 kts 70°
2026-04-21 18:51 32.14679 -132.86297 37039 ft 548 kts 70°
2026-04-21 18:52 32.16880 -132.77667 37037 ft 549 kts 70°
2026-04-21 18:52 32.19079 -132.69016 37033 ft 549 kts 70°
2026-04-21 18:53 32.21257 -132.60414 37040 ft 550 kts 70°
2026-04-21 18:53 32.23450 -132.51734 37033 ft 551 kts 70°
2026-04-21 18:54 32.25625 -132.43091 37038 ft 552 kts 70°
2026-04-21 18:54 32.27811 -132.34371 37033 ft 553 kts 70°
2026-04-21 18:55 32.29625 -132.27123 37032 ft 553 kts 70°
2026-04-21 18:55 32.32148 -132.16974 37026 ft 553 kts 71°
2026-04-21 18:56 32.34300 -132.08207 37032 ft 554 kts 70°
2026-04-21 18:56 32.36457 -131.99452 37033 ft 554 kts 70°
2026-04-21 18:57 32.38604 -131.90747 37033 ft 554 kts 71°
2026-04-21 18:57 32.40766 -131.81964 37027 ft 554 kts 71°
2026-04-21 18:58 32.42904 -131.73240 37026 ft 554 kts 71°
2026-04-21 18:58 32.45048 -131.64471 37026 ft 554 kts 71°
2026-04-21 18:59 32.47187 -131.55692 37026 ft 553 kts 71°
2026-04-21 18:59 32.49305 -131.46964 37026 ft 554 kts 71°
2026-04-21 19:00 32.51430 -131.38177 37026 ft 553 kts 71°
2026-04-21 19:00 32.53545 -131.29409 37026 ft 553 kts 71°
2026-04-21 19:01 32.55631 -131.20677 37038 ft 553 kts 71°
2026-04-21 19:01 32.57705 -131.11913 37049 ft 553 kts 71°
2026-04-21 19:02 32.59802 -131.03093 37052 ft 554 kts 71°
2026-04-21 19:02 32.61893 -130.94304 37042 ft 554 kts 71°
2026-04-21 19:03 32.63975 -130.85529 37046 ft 554 kts 71°
2026-04-21 19:03 32.66059 -130.76709 37044 ft 553 kts 71°
2026-04-21 19:04 32.68126 -130.67933 37046 ft 553 kts 71°
2026-04-21 19:04 32.70185 -130.59158 37045 ft 553 kts 71°
2026-04-21 19:05 32.72242 -130.50366 37044 ft 553 kts 71°
2026-04-21 19:05 32.74303 -130.41530 37043 ft 554 kts 71°
2026-04-21 19:06 32.76352 -130.32701 37044 ft 553 kts 71°
2026-04-21 19:06 32.78370 -130.23901 37046 ft 554 kts 71°
2026-04-21 19:07 32.80388 -130.15052 37044 ft 554 kts 71°
2026-04-21 19:07 32.82405 -130.06244 37045 ft 554 kts 71°
2026-04-21 19:08 32.84424 -129.97435 37041 ft 554 kts 71°
2026-04-21 19:08 32.86444 -129.88596 37045 ft 556 kts 71°
2026-04-21 19:09 32.88475 -129.79665 37046 ft 556 kts 72°
2026-04-21 19:09 32.90485 -129.70799 37045 ft 556 kts 72°
2026-04-21 19:10 32.92487 -129.61921 37044 ft 556 kts 72°
2026-04-21 19:10 32.94484 -129.53032 37046 ft 557 kts 72°
2026-04-21 19:11 32.96483 -129.44119 37047 ft 557 kts 72°
2026-04-21 19:11 32.98477 -129.35185 37043 ft 557 kts 72°
2026-04-21 19:12 33.00102 -129.27792 37041 ft 557 kts 72°
2026-04-21 19:12 33.02397 -129.17345 37048 ft 558 kts 72°
2026-04-21 19:13 33.04361 -129.08439 37044 ft 558 kts 72°
2026-04-21 19:13 33.06337 -128.99453 37041 ft 558 kts 72°
2026-04-21 19:14 33.08299 -128.90515 37046 ft 559 kts 72°
2026-04-21 19:14 33.10258 -128.81552 37044 ft 559 kts 72°
2026-04-21 19:15 33.12216 -128.72548 37071 ft 560 kts 72°
2026-04-21 19:15 33.14157 -128.63595 37073 ft 560 kts 73°
2026-04-21 19:16 33.16108 -128.54557 37073 ft 560 kts 73°
2026-04-21 19:16 33.18037 -128.45580 37074 ft 560 kts 73°
2026-04-21 19:17 33.20917 -128.32063 37073 ft 561 kts 73°
2026-04-21 19:17 33.22812 -128.23064 37072 ft 561 kts 73°
2026-04-21 19:18 33.24729 -128.13998 37073 ft 561 kts 73°
2026-04-21 19:18 33.26638 -128.04972 37057 ft 561 kts 73°
2026-04-21 19:19 33.29305 -127.96341 37052 ft 553 kts 57°
2026-04-21 19:19 33.33691 -127.88897 37051 ft 540 kts 39°
2026-04-21 19:20 33.39226 -127.83036 37062 ft 536 kts 35°
2026-04-21 19:20 33.44124 -127.76138 37071 ft 551 kts 52°
2026-04-21 19:21 33.47514 -127.67815 37073 ft 562 kts 69°
2026-04-21 19:21 33.49116 -127.58679 37066 ft 566 kts 85°
2026-04-21 19:22 33.49055 -127.49225 37064 ft 566 kts 92°
2026-04-21 19:22 33.49356 -127.39848 37063 ft 566 kts 82°
2026-04-21 19:23 33.50763 -127.30568 37059 ft 566 kts 75°
2026-04-21 19:23 33.52546 -127.21366 37060 ft 567 kts 75°
2026-04-21 19:24 33.54299 -127.12134 37062 ft 568 kts 76°
2026-04-21 19:24 33.55970 -127.02914 37063 ft 569 kts 76°
2026-04-21 19:25 33.57621 -126.93624 37063 ft 569 kts 77°
2026-04-21 19:25 33.59274 -126.84310 37065 ft 570 kts 76°
2026-04-21 19:26 33.60892 -126.75046 37063 ft 570 kts 77°
2026-04-21 19:26 33.62517 -126.65706 37064 ft 571 kts 77°
2026-04-21 19:27 33.64158 -126.56345 37063 ft 572 kts 77°
2026-04-21 19:27 33.65788 -126.47044 37063 ft 572 kts 77°
2026-04-21 19:28 33.67417 -126.37691 37063 ft 573 kts 77°
2026-04-21 19:28 33.69034 -126.28351 37065 ft 574 kts 77°
2026-04-21 19:29 33.70653 -126.18947 37063 ft 574 kts 77°
2026-04-21 19:29 33.71991 -126.11134 37063 ft 574 kts 78°
2026-04-21 19:30 33.73597 -126.01722 37064 ft 574 kts 78°
2026-04-21 19:30 33.75193 -125.92343 37063 ft 574 kts 78°
2026-04-21 19:31 33.76781 -125.82918 37064 ft 575 kts 78°
2026-04-21 19:31 33.78330 -125.73554 37063 ft 574 kts 78°
2026-04-21 19:32 33.79897 -125.64105 37063 ft 574 kts 78°
2026-04-21 19:32 33.81468 -125.54679 37063 ft 574 kts 78°
2026-04-21 19:33 33.83024 -125.45311 37063 ft 574 kts 78°
2026-04-21 19:33 33.84581 -125.35876 37063 ft 574 kts 78°
2026-04-21 19:34 33.86120 -125.26501 37063 ft 574 kts 78°
2026-04-21 19:34 33.87664 -125.17047 37065 ft 574 kts 79°
2026-04-21 19:35 33.89956 -125.02930 37063 ft 574 kts 79°
2026-04-21 19:36 33.91481 -124.93490 37064 ft 574 kts 79°
2026-04-21 19:36 33.93137 -124.84073 37064 ft 574 kts 77°
2026-04-21 19:37 33.94914 -124.74679 37063 ft 575 kts 77°
2026-04-21 19:37 33.96700 -124.65282 37063 ft 575 kts 77°
2026-04-21 19:38 33.98464 -124.55879 37064 ft 575 kts 78°
2026-04-21 19:38 34.00202 -124.46524 37063 ft 576 kts 78°
2026-04-21 19:39 34.01946 -124.37105 37064 ft 574 kts 78°
2026-04-21 19:39 34.03681 -124.27696 37053 ft 574 kts 78°
2026-04-21 19:40 34.05402 -124.18320 37061 ft 575 kts 78°
2026-04-21 19:40 34.07116 -124.08935 37062 ft 575 kts 79°
2026-04-21 19:41 34.08834 -123.99482 37053 ft 576 kts 79°
2026-04-21 19:41 34.10531 -123.90016 37055 ft 575 kts 79°
2026-04-21 19:42 34.12202 -123.80595 37053 ft 576 kts 79°
2026-04-21 19:42 34.13878 -123.71207 37057 ft 575 kts 79°
2026-04-21 19:43 34.15566 -123.61753 37057 ft 575 kts 79°
2026-04-21 19:43 34.17245 -123.52304 37053 ft 574 kts 79°
2026-04-21 19:44 34.18909 -123.42898 37054 ft 573 kts 79°
2026-04-21 19:44 34.20559 -123.33523 37054 ft 571 kts 79°
2026-04-21 19:45 34.22207 -123.24094 37097 ft 571 kts 80°
2026-04-21 19:45 34.23841 -123.14730 37096 ft 570 kts 80°
2026-04-21 19:46 34.24892 -123.05266 37097 ft 564 kts 93°
2026-04-21 19:46 34.24324 -122.95929 37103 ft 556 kts 103°
2026-04-21 19:47 34.23329 -122.86632 37101 ft 557 kts 102°
2026-04-21 19:47 34.22529 -122.77360 37097 ft 557 kts 101°
2026-04-21 19:48 34.21855 -122.68013 37102 ft 558 kts 100°
2026-04-21 19:48 34.21194 -122.58663 37096 ft 558 kts 100°
2026-04-21 19:49 34.20519 -122.49368 37096 ft 558 kts 100°
2026-04-21 19:49 34.19824 -122.39999 37105 ft 558 kts 101°
2026-04-21 19:50 34.19240 -122.32224 37106 ft 558 kts 101°
2026-04-21 19:50 34.18412 -122.21323 37103 ft 559 kts 101°
2026-04-21 19:51 34.17697 -122.12001 37104 ft 559 kts 101°
2026-04-21 19:51 34.16953 -122.02639 37095 ft 559 kts 101°
2026-04-21 19:52 34.16203 -121.93338 37097 ft 559 kts 101°
2026-04-21 19:52 34.15457 -121.83966 37100 ft 559 kts 101°
2026-04-21 19:53 34.14717 -121.74672 37097 ft 558 kts 101°
2026-04-21 19:53 34.13970 -121.65366 37097 ft 557 kts 101°
2026-04-21 19:54 34.13213 -121.56032 37099 ft 557 kts 101°
2026-04-21 19:54 34.12449 -121.46712 37096 ft 555 kts 101°
2026-04-21 19:55 34.11683 -121.37486 37097 ft 555 kts 102°
2026-04-21 19:55 34.10911 -121.28218 37099 ft 553 kts 102°
2026-04-21 19:56 34.10129 -121.18991 37107 ft 551 kts 102°
2026-04-21 19:56 34.09350 -121.09850 37110 ft 549 kts 102°
2026-04-21 19:57 34.08539 -121.00674 37107 ft 549 kts 102°
2026-04-21 19:57 34.07727 -120.91524 37106 ft 547 kts 102°
2026-04-21 19:57 34.07326 -120.86997 36718 ft 552 kts 102°
2026-04-21 19:58 34.06923 -120.82396 36269 ft 549 kts 102°
2026-04-21 19:58 34.06522 -120.77805 35817 ft 548 kts 102°
2026-04-21 19:58 34.06117 -120.73213 35367 ft 551 kts 103°
2026-04-21 19:58 34.05705 -120.68586 34916 ft 556 kts 103°
2026-04-21 19:59 34.05295 -120.63984 34484 ft 559 kts 103°
2026-04-21 19:59 34.04878 -120.59315 34111 ft 560 kts 103°
2026-04-21 19:59 34.04457 -120.54637 33736 ft 561 kts 103°
2026-04-21 19:59 34.04033 -120.49947 33285 ft 562 kts 103°
2026-04-21 20:00 34.03613 -120.45306 32640 ft 562 kts 103°
2026-04-21 20:00 34.03188 -120.40620 31991 ft 559 kts 103°
2026-04-21 20:00 34.02861 -120.35917 31336 ft 561 kts 98°
2026-04-21 20:00 34.02934 -120.31242 30688 ft 565 kts 92°
2026-04-21 20:01 34.03262 -120.26520 30039 ft 566 kts 90°
2026-04-21 20:01 34.03647 -120.21779 29385 ft 564 kts 90°
2026-04-21 20:01 34.03988 -120.17057 28736 ft 563 kts 91°
2026-04-21 20:01 34.04259 -120.12397 28090 ft 563 kts 92°
2026-04-21 20:02 34.04476 -120.07668 27438 ft 563 kts 93°
2026-04-21 20:02 34.04658 -120.02941 26786 ft 563 kts 93°
2026-04-21 20:02 34.04822 -119.98275 26143 ft 564 kts 93°
2026-04-21 20:02 34.04984 -119.93532 25495 ft 566 kts 93°
2026-04-21 20:03 34.05149 -119.88836 24841 ft 548 kts 93°
2026-04-21 20:03 34.05317 -119.84328 24186 ft 528 kts 93°
2026-04-21 20:03 34.05476 -119.79974 23533 ft 530 kts 93°
2026-04-21 20:03 34.05626 -119.75432 22884 ft 542 kts 93°
2026-04-21 20:04 34.05777 -119.70953 22244 ft 537 kts 93°
2026-04-21 20:04 34.05933 -119.66470 21593 ft 532 kts 92°
2026-04-21 20:04 34.06089 -119.62038 20947 ft 526 kts 92°
2026-04-21 20:04 34.06241 -119.57636 20289 ft 520 kts 93°
2026-04-21 20:05 34.06388 -119.53296 19637 ft 515 kts 93°
2026-04-21 20:05 34.06531 -119.49047 18993 ft 509 kts 93°
2026-04-21 20:05 34.06673 -119.44783 18417 ft 502 kts 93°
2026-04-21 20:05 34.06808 -119.40587 18041 ft 498 kts 93°
2026-04-21 20:06 34.06928 -119.36463 17669 ft 495 kts 93°
2026-04-21 20:06 34.07044 -119.32323 17300 ft 491 kts 93°
2026-04-21 20:06 34.07163 -119.28213 17152 ft 487 kts 93°
2026-04-21 20:06 34.07285 -119.24135 17118 ft 486 kts 93°
2026-04-21 20:07 34.07407 -119.20053 17116 ft 485 kts 93°
2026-04-21 20:07 34.07528 -119.16033 17119 ft 485 kts 93°
2026-04-21 20:07 34.07611 -119.13288 17113 ft 485 kts 93°
2026-04-21 20:07 34.07772 -119.07900 16914 ft 484 kts 93°
2026-04-21 20:08 34.07892 -119.03841 16765 ft 481 kts 93°
2026-04-21 20:08 34.08010 -118.99811 16615 ft 480 kts 93°
2026-04-21 20:08 34.08128 -118.95797 16470 ft 478 kts 93°
2026-04-21 20:08 34.08246 -118.91780 16312 ft 475 kts 93°
2026-04-21 20:09 34.08356 -118.87852 16165 ft 472 kts 93°
2026-04-21 20:09 34.08466 -118.83886 16012 ft 470 kts 93°
2026-04-21 20:09 34.08575 -118.79940 15863 ft 468 kts 93°
2026-04-21 20:09 34.08683 -118.76078 15699 ft 465 kts 93°
2026-04-21 20:10 34.08788 -118.72183 15455 ft 463 kts 92°
2026-04-21 20:10 34.08895 -118.68373 15074 ft 443 kts 93°
2026-04-21 20:10 34.08999 -118.64759 14686 ft 419 kts 93°
2026-04-21 20:10 34.09094 -118.61323 14310 ft 399 kts 93°
2026-04-21 20:11 34.09181 -118.58088 13937 ft 382 kts 94°
2026-04-21 20:11 34.09261 -118.54950 13562 ft 363 kts 94°
2026-04-21 20:11 34.09335 -118.51949 12923 ft 365 kts 94°
2026-04-21 20:11 34.09404 -118.48927 12181 ft 351 kts 94°
2026-04-21 20:12 34.09474 -118.46041 11420 ft 336 kts 94°
2026-04-21 20:12 34.09540 -118.43309 10672 ft 323 kts 93°
2026-04-21 20:12 34.09584 -118.41497 10142 ft 315 kts 92°
2026-04-21 20:12 34.09653 -118.38024 8857 ft 311 kts 91°
2026-04-21 20:13 34.09699 -118.35423 7853 ft 308 kts 90°
2026-04-21 20:13 34.09747 -118.32847 6849 ft 304 kts 90°
2026-04-21 20:13 34.09793 -118.30311 5845 ft 299 kts 92°
2026-04-21 20:13 34.09606 -118.27877 5108 ft 287 kts 100°
2026-04-21 20:14 34.09274 -118.25590 4727 ft 266 kts 102°
2026-04-21 20:14 34.08925 -118.23418 4338 ft 263 kts 102°
2026-04-21 20:14 34.08564 -118.21213 4061 ft 269 kts 102°
2026-04-21 20:14 34.08211 -118.19030 3996 ft 269 kts 102°
2026-04-21 20:15 34.07849 -118.16818 3988 ft 268 kts 103°
2026-04-21 20:15 34.07131 -118.14763 3987 ft 266 kts 128°
2026-04-21 20:15 34.05768 -118.13366 3984 ft 249 kts 156°
2026-04-21 20:15 34.04185 -118.12851 3983 ft 230 kts 172°
2026-04-21 20:16 34.02587 -118.12580 3993 ft 232 kts 178°
2026-04-21 20:16 34.00991 -118.12762 3988 ft 230 kts 196°
2026-04-21 20:16 33.99548 -118.13580 3985 ft 230 kts 215°
2026-04-21 20:16 33.98388 -118.14897 3990 ft 230 kts 233°
2026-04-21 20:17 33.97735 -118.16645 3890 ft 233 kts 255°
2026-04-21 20:17 33.97421 -118.18538 3593 ft 232 kts 259°
2026-04-21 20:17 33.97198 -118.20461 3287 ft 230 kts 262°
2026-04-21 20:17 33.97009 -118.22364 2983 ft 227 kts 262°
2026-04-21 20:18 33.96886 -118.23604 2786 ft 224 kts 262°
2026-04-21 20:18 33.96639 -118.26055 2399 ft 212 kts 262°
2026-04-21 20:18 33.96471 -118.27725 2120 ft 193 kts 262°
2026-04-21 20:18 33.96311 -118.29297 1869 ft 189 kts 262°
2026-04-21 20:19 33.96151 -118.30867 1625 ft 188 kts 263°
2026-04-21 20:19 33.95994 -118.32430 1378 ft 184 kts 263°
2026-04-21 20:19 33.95843 -118.33902 1135 ft 168 kts 264°
2026-04-21 20:19 33.95713 -118.35293 879 ft 163 kts 264°
2026-04-21 20:20 33.95586 -118.36613 700 ft 157 kts 262°
2026-04-21 20:20 33.95445 -118.37910 510 ft 155 kts 262°
2026-04-21 20:20 33.95315 -118.39188 296 ft 155 kts 262°
2026-04-21 20:20 33.95183 -118.40457 116 ft 152 kts 262°
2026-04-21 20:21 33.95061 -118.41562 101 ft 106 kts 264°
2026-04-21 20:21 33.95001 -118.42208 102 ft 49 kts 263°
2026-04-21 20:21 33.94970 -118.42442 100 ft 38 kts 253°
2026-04-21 20:21 33.94864 -118.42655 105 ft 7 kts 227°
2026-04-21 20:22 33.94863 -118.42657 102 ft 0 kts 226°
2026-04-21 20:22 33.94732 -118.42761 105 ft 26 kts 196°
2026-04-21 20:22 33.94633 -118.42726 102 ft 7 kts 104°
2026-04-21 20:23 33.94636 -118.42672 102 ft 10 kts 85°
2026-04-21 20:23 33.94650 -118.42537 102 ft 18 kts 80°
2026-04-21 20:23 33.94669 -118.42379 102 ft 21 kts 82°
2026-04-21 20:23 33.94690 -118.42193 101 ft 23 kts 83°
2026-04-21 20:24 33.94710 -118.41994 101 ft 24 kts 83°
2026-04-21 20:24 33.94731 -118.41796 104 ft 25 kts 83°
2026-04-21 20:24 33.94752 -118.41586 101 ft 24 kts 83°
2026-04-21 20:24 33.94776 -118.41397 102 ft 22 kts 80°
2026-04-21 20:25 33.94800 -118.41225 104 ft 20 kts 80°
2026-04-21 20:25 33.94819 -118.41068 104 ft 18 kts 84°
2026-04-21 20:25 33.94826 -118.40932 102 ft 11 kts 104°
2026-04-21 20:25 33.94799 -118.40900 101 ft 2 kts 161°
2026-04-21 20:26 33.94784 -118.40898 101 ft 2 kts 176°
2026-04-21 20:26 33.94747 -118.40902 101 ft 11 kts 185°
2026-04-21 20:26 33.94668 -118.40904 99 ft 11 kts 177°
2026-04-21 20:26 33.94634 -118.40894 100 ft 2 kts 144°
2026-04-21 20:27 33.94630 -118.40885 101 ft 2 kts 122°
2026-04-21 20:27 33.94618 -118.40855 100 ft 5 kts 112°
2026-04-21 20:27 33.94607 -118.40823 100 ft 2 kts 112°
2026-04-21 20:27 33.94604 -118.40814 100 ft 0 kts 112°
2026-04-21 20:28 33.94603 -118.40809 100 ft 2 kts 112°
2026-04-21 20:28 33.94602 -118.40809 100 ft 0 kts 112°